TimeEST,TemperatureF,Dew PointF,Humidity,Sea Level PressureIn,VisibilityMPH,Wind Direction,Wind SpeedMPH,Gust SpeedMPH,PrecipitationIn,Events,Conditions,WindDirDegrees,DateUTC
12:53 AM,46.9,39.9,77,30.33,10.0,NNE,4.6,-,N/A,,Clear,30,2012-11-19 05:53:00
1:53 AM,46.9,39.9,77,30.32,10.0,NE,3.5,-,N/A,,Partly Cloudy,50,2012-11-19 06:53:00
2:53 AM,48.9,39.9,71,30.32,10.0,NE,3.5,-,N/A,,Overcast,40,2012-11-19 07:53:00
3:53 AM,48.0,39.0,71,30.30,10.0,NNE,4.6,-,N/A,,Scattered Clouds,30,2012-11-19 08:53:00
4:53 AM,46.0,39.9,79,30.30,10.0,Calm,Calm,-,N/A,,Clear,0,2012-11-19 09:53:00
5:53 AM,43.0,39.0,86,30.30,10.0,Calm,Calm,-,N/A,,Clear,0,2012-11-19 10:53:00
6:53 AM,43.0,41.0,93,30.30,10.0,Calm,Calm,-,N/A,,Mostly Cloudy,0,2012-11-19 11:53:00
7:53 AM,46.9,43.0,86,30.30,10.0,ENE,3.5,-,N/A,,Overcast,60,2012-11-19 12:53:00
8:53 AM,50.0,42.1,74,30.32,10.0,Calm,Calm,-,N/A,,Overcast,0,2012-11-19 13:53:00
9:53 AM,52.0,43.0,71,30.32,10.0,North,3.5,-,N/A,,Overcast,350,2012-11-19 14:53:00
10:53 AM,55.9,44.1,64,30.30,10.0,NE,9.2,-,N/A,,Overcast,50,2012-11-19 15:53:00
11:53 AM,57.0,46.0,67,30.29,10.0,NNE,8.1,-,N/A,,Overcast,20,2012-11-19 16:53:00
12:44 PM,59.0,48.2,67,30.27,10.0,Variable,5.8,-,N/A,,Overcast,0,2012-11-19 17:44:00
12:53 PM,59.0,46.9,64,30.26,10.0,NE,6.9,-,N/A,,Overcast,50,2012-11-19 17:53:00
1:08 PM,59.0,46.4,63,30.27,10.0,NNE,5.8,-,N/A,,Overcast,30,2012-11-19 18:08:00
1:53 PM,60.1,48.0,64,30.24,10.0,NNW,3.5,-,N/A,,Overcast,340,2012-11-19 18:53:00
2:33 PM,60.8,48.2,63,30.24,10.0,NNE,6.9,-,N/A,,Overcast,30,2012-11-19 19:33:00
2:53 PM,61.0,48.0,62,30.22,10.0,Variable,4.6,-,N/A,,Overcast,0,2012-11-19 19:53:00
3:01 PM,60.8,48.2,63,30.23,10.0,North,4.6,-,N/A,,Overcast,10,2012-11-19 20:01:00
3:53 PM,60.1,48.9,67,30.22,10.0,NNE,6.9,-,N/A,,Overcast,30,2012-11-19 20:53:00
4:53 PM,60.1,48.9,67,30.22,10.0,ENE,3.5,-,N/A,,Overcast,60,2012-11-19 21:53:00
5:53 PM,57.9,48.0,70,30.21,10.0,ESE,3.5,-,N/A,,Overcast,110,2012-11-19 22:53:00
6:53 PM,57.0,48.0,72,30.21,10.0,Calm,Calm,-,N/A,,Overcast,0,2012-11-19 23:53:00
7:53 PM,57.0,48.0,72,30.21,10.0,SE,3.5,-,N/A,,Overcast,140,2012-11-20 00:53:00
8:53 PM,55.9,48.9,77,30.21,10.0,WNW,3.5,-,N/A,,Overcast,300,2012-11-20 01:53:00
9:53 PM,57.0,48.9,74,30.21,10.0,Calm,Calm,-,N/A,,Overcast,0,2012-11-20 02:53:00
10:53 PM,55.9,48.9,77,30.20,10.0,Calm,Calm,-,N/A,,Overcast,0,2012-11-20 03:53:00
11:53 PM,55.9,48.9,77,30.20,10.0,Calm,Calm,-,N/A,,Overcast,0,2012-11-20 04:53:00